Regional Weather Roundup
Issued by NWS Wakefield, VA

Home | Current Version | Previous Version | Graphics & Text | Print | Product List | Glossary On
Versions: 1 2 3 4 5 6 7 8 9 10 11 12 13 14 15 16 17 18 19 20 21 22 23 24 25 26 27
000
ASUS41 KAKQ 241314
RWRAKQ

REGIONAL WEATHER ROUNDUP
NATIONAL WEATHER SERVICE WAKEFIELD VA
800 AM EST FRI FEB 24 2017

Note: "fair" indicates few or no clouds below 12,000 feet with no
significant weather and/or obstructions to visibility. * = Denotes
station may not report precipitation (e.g., rain,snow,etc.),
thunder or fog.

VAZ042-051-052>054-056-241400-
NORTHERN VIRGINIA

CITY           SKY/WX    TMP DP  RH WIND       PRES   REMARKS
WASH NATIONAL  MOSUNNY   57  55  93 S7        29.93R
DULLES         MOSUNNY   57  52  83 S7        29.91R
FORT BELVOIR   NOT AVBL
QUANTICO       SUNNY     54  54 100 SW6       29.93S
FREDERICKSBRG* SUNNY     56  56 100 S3        29.92S
STAFFORD*      SUNNY     55  55 100 CALM      29.97R
WARRENTON      SUNNY     58  51  78 SW5       29.91R
CULPEPER*      SUNNY     53  53 100 SW3       29.93R
MANASSAS*      SUNNY     54  53  97 CALM      29.92R
LEESBURG*      SUNNY     55  55 100 MISG      29.92R
WINCHESTER     SUNNY     54  48  82 SW6       29.88R
FRONT ROYAL*   NOT AVBL
LURAY*         NOT AVBL
$$

VAZ048-049-060>072-079>083-241400-
CENTRAL AND SOUTH CENTRAL VIRGINIA

CITY           SKY/WX    TMP DP  RH WIND       PRES   REMARKS
RICHMOND       MOSUNNY   55  55 100 CALM      29.94S
CHESTERFIELD*  CLOUDY    54  37  54 NW5       29.96S VSB 1/2
PETERSBURG*    CLOUDY    49  48  97 CALM      29.95R FOG
HANOVER        MOSUNNY   54  52  93 S3        29.96R FOG
TAPPAHANNOCK*  SUNNY     55  55 100 CALM      29.95S
QUINTON*       NOT AVBL
CHARLOTTSVILLE SUNNY     55  51  86 SW7       29.91S
GORDONSVILLE*  NOT AVBL
ORANGE*        SUNNY     52  50  93 CALM      29.93S
LOUISA*        SUNNY     61  55  82 S3        29.92R
BUMPASS*       NOT AVBL
FARMVILLE*     MOSUNNY   50  50 100 CALM      29.93S FOG
CREWE*         NOT AVBL
FORT PICKETT*  NOT AVBL
CHASE CITY*    NOT AVBL
CLARKSVILLE*   NOT AVBL
SOUTH HILL*    CLOUDY    48  48 100 CALM      30.00R VSB 1/2
LAWRENCEVILLE* NOT AVBL
EMPORIA*       CLOUDY    46  46 100 CALM      29.97R
$$

VAZ088>098-241400-
SOUTHEAST VIRGINIA

CITY           SKY/WX    TMP DP  RH WIND       PRES   REMARKS
NORFOLK        SUNNY     57  54  89 CALM      29.95R
VIRGINIA BEACH MOSUNNY   55  53  93 CALM      29.95S
NORFOLK NAVAL  MOSUNNY   58  55  90 CALM      29.97R
WEST POINT*    SUNNY     51  51  99 CALM      29.96S
SALUDA*        NOT AVBL
NEWPORT NEWS   SUNNY     54  53  97 CALM      29.96R
LANGLEY AFB    SUNNY     54  54 100 CALM      29.95R
FORT EUSTIS    SUNNY     55  51  88 CALM      29.93R
WILLIAMSBURG*  SUNNY     54  54 100 CALM      29.96R
HR EXEC AP*    NOT AVBL
FRANKLIN*      SUNNY     50  48  93 CALM      29.96S
US460-WAKEFLD  SUNNY     52  51  97 CALM      29.95R
$$

VAZ020-022-025-037-045-241400-
WEST CENTRAL AND SOUTHWEST VIRGINIA

CITY           SKY/WX    TMP DP  RH WIND       PRES   REMARKS
STAUNTON*      MOSUNNY   47  46  97 SW3       29.93R
WAYNESBORO*    NOT AVBL
HOT SPRINGS VA SUNNY     52  45  76 CALM      29.96R
LYNCHBURG      SUNNY     53  52  96 CALM      29.95R
DANVILLE       SUNNY     49  49 100 MISG      29.95R
SOUTH BOSTON*  NOT AVBL
MARTINSVILLE   SUNNY     45  45  98 CALM      29.97R
ROANOKE        MOSUNNY   50  48  93 CALM      29.96R
BLACKSBURG     MOSUNNY   48  48  99 CALM      29.97S
DUBLIN*        FOG       43  43 100 CALM      29.96R VSB<1/4
MARION*        SUNNY     47  46  96 CALM      29.96S
HILLSVILLE*    SUNNY     53  52  98 CALM      29.94S
RICHLANDS*     FAIR      56  46  68 SE5       29.91S
WISE*          PTCLDY    55  45  67 S3        29.91S
ABINGDON*      CLEAR     50  47  91 CALM      29.91S
$$

MDZ021>025-VAZ099-100-241400-
SOUTHERN MARYLAND AND THE DELMARVA PENINSULA

CITY           SKY/WX    TMP DP  RH WIND       PRES   REMARKS
PATUXENT RIVER MOSUNNY   50  50 100 CALM      29.94R
BAY BRIDGE APT SUNNY     55  52  88 S9        29.94R FOG
LEONARDTOWN    SUNNY     55  52  88 CALM      29.96R
DOVER          SUNNY     57  57 100 S6        29.94R
GEORGETOWN     SUNNY     58  53  84 S5        29.96R
EASTON         SUNNY     59  54  82 S7        29.98R
CAMBRIDGE      SUNNY     55  54  94 S6        29.95S
SALISBURY      SUNNY     57  55  93 S3        29.96R
OCEAN CITY     SUNNY     52  51  97 CALM      29.97S
WALLOPS ISLAND MOSUNNY   54  53  97 S8        29.98R
ACCOMACK*      PTSUNNY   57  53  88 S8        29.97R
$$

NCZ012>017-030>032-241400-
NORTH CENTRAL AND EASTERN NORTH CAROLINA

CITY           SKY/WX    TMP DP  RH WIND       PRES   REMARKS
ROANOKE RAPIDS FOG       46  46 100 CALM      29.95R VSB 1/4
RALEIGH        MOSUNNY   53  51  93 CALM      29.94R
ELIZABETH CITY MOSUNNY   60  58  92 SE10      29.96R
AHOSKIE*         N/A     49  49  97 CALM      29.95S
EDENTON*       SUNNY     58  56  95 CALM      29.96R
CURRITUCK*     PTSUNNY   59  59 100 CALM      29.97R
KILL DEVIL HLS NOT AVBL
MANTEO         CLOUDY    62  62 100 E3        29.95S
CAPE HATTERAS  MOSUNNY   63  59  87 E5        29.94R FOG
TARBORO*       NOT AVBL
GOLDSBORO      SUNNY     56  56 100 CALM      29.91S
WASHINGTON     MOSUNNY   58  57  96 CALM      29.94S
GREENVILLE     SUNNY     52  52 100 CALM      29.95S FOG
NEW BERN       SUNNY     57  57 100 CALM      29.94R
WILMINGTON     PTSUNNY   58  58 100 NE5       29.91R
$$

VAZ048-241400-
ELSEWHERE

CITY           SKY/WX    TMP DP  RH WIND       PRES   REMARKS
HARRISBURG PA  MOSUNNY   55  51  86 E3        29.90R
BALTIMORE      MOSUNNY   54  53  97 CALM      29.92R
ANNAPOLIS      PTSUNNY   52  50  93 SE7       29.93R
ANDREWS AFB    SUNNY     59  55  86 S9        29.92R
PHILADELPHIA   MOSUNNY   56  51  84 S5        29.95R
HENDERSON NC   SUNNY     51  51  97 CALM      29.94R
GREENSBORO     MOSUNNY   54  54 100 CALM      29.94R
ROCKY MOUNT    FOG       53  53 100 CALM      29.95R VSB 1/2
$$

VAZ100-241400-
MARINE

STATION/POSITION TIME  TEMP    WIND        PRES    WAVE   SWELL
                       AIR SEA DIR/SP/G            HT/PER HT/PER
                 (UTC) (F)     (DEG/KT/KT) (MB)    (FT/S) (FT/S)
CAPE MAY NJ      1248   53 45  150/  6/  7 1014.1R
LEWES DE         1248   59 44  190/  3/  5 1014.3R
OCEAN-CITY-INLET 1248   50 43  190/  4/  5 1015.1R
WACHAPREAGUE VA  1248   55 52  150/  1/  2 1014.8R
THOMAS POINT MD  1200   47 44  190/  8/  9   N/A
GOOSES REEF MD   1300   48 44  170/ 10/ 12 1014.4    1
COVE POINT MD    1248   47     190/ 10/ 10 1014.5R
SOLOMONS ISLAND  1248   51 46   90/  5/  5   N/A
BISHOPS HEAD MD  1248   49 49  150/  6/  6 1014.4R
PINEY POINT MD   1242          120/  6/  6   N/A
POTOMAC MD       1300   49 47  150/  6/  6 1013.2    0
CAMBRIDGE MD     1248   56 43  170/  5/  8 1013.3R
LEWISETTA VA     1248   57 45  200/  3/  3 1013.6R
RAPPAHANNOCK LGT 1242          140/  9/ 10 1015.0R
YORK RVR RNG VA  1248   52     140/  4/  4 1013.6R
YORKTOWN VA      1248   51 48   80/  1/  2 1014.0R
JAMESTOWN VA     1300   53 52  130/  4/  4   N/A     0
DOMINION TERM VA 1248   61     120/  1/  2 1014.3R
KIPTOPEKE VA     1242      48  140/  6/  6   N/A
CHES BAY BRIDGE  1248   58 47  130/  3/  4 1014.3R
CAPE HENRY VA    1248   57     170/  2/  3   N/A
WILLOUBY STN VA  1248   55      60/  3/  3 1015.1R
S CRANEY ISL VA  1248   54      CALM  /  1 1014.0R
CAPE HENRY BUOY  1242      49                N/A     3/13   2/13
OFFSHORE WE BUOY 1251      49                N/A     3/12   2/12
64NM E OF VA BCH 1250   62 54  120/  4/  6 1014.7R   5/12   5/12
DUCK PIER NC     1248   58 49  130/  6/  7 1013.9R
44100 DUCK FRF   1205      49                N/A     5/13   3/13
44056 DUCK FRF   1300      51                N/A     4/12   2/12
OREGON INLET NC  1242   60 56   40/  6/  8 1014.1R
HATTERAS NC      1248   63 62   50/  4/  6 1013.2S
DIAMOND SHLS NC  1250   66 73  110/ 17/ 19 1013.7R   8/10   5/10
CAPE LOOKOUT NC  1200   61      40/  7/  7 1012.3S
$$




USA.gov is the U.S. government's official web portal to all federal, state and local government web resources and services.